Location: Carnetin
(48.9010°N, 2.7059°E)
Time: 11:07:39
(UTC+00:00)

NOSS 3-1 (A) - Pass Details

Date: 24 October 2021
Orbit: 721 x 1491 km, 63.4° (Epoch: 22 November)

Event Time Altitude Azimuth Distance (km) Brightness Sun altitude
Rises 17:48:04 0° 190° (S) 3,180 6.4 -11.4°
Reaches altitude 10° 17:50:28 10° 181° (S) 2,313 5.6 -11.8°
Maximum altitude 17:55:14 36° 116° (ESE) 1,322 3.8 -12.6°
Enters shadow 17:59:58 13° 56° (NE) 2,420 5.1 -13.4°
